Year,Month,Day,Hour,Minute,Value (Times are PST for temperature in C)
2014,07,02,00,00,19.40
2014,07,02,00,01,19.40
2014,07,02,00,02,19.40
2014,07,02,00,03,19.40
2014,07,02,00,04,19.40
2014,07,02,00,05,19.40
2014,07,02,00,06,19.40
2014,07,02,00,07,19.40
2014,07,02,00,08,19.40
2014,07,02,00,09,19.40
2014,07,02,00,10,19.40
2014,07,02,00,11,19.40
2014,07,02,00,12,19.40
2014,07,02,00,13,19.40
2014,07,02,00,14,19.40
2014,07,02,00,15,19.40
2014,07,02,00,16,19.40
2014,07,02,00,17,19.40
2014,07,02,00,18,19.30
2014,07,02,00,19,19.30
2014,07,02,00,20,19.30
2014,07,02,00,21,19.30
2014,07,02,00,22,19.20
2014,07,02,00,23,19.20
2014,07,02,00,24,19.20
2014,07,02,00,25,19.20
2014,07,02,00,26,19.20
2014,07,02,00,27,19.20
2014,07,02,00,28,19.10
2014,07,02,00,29,19.10
2014,07,02,00,30,19.00
2014,07,02,00,31,19.00
2014,07,02,00,32,18.90
2014,07,02,00,33,18.90
2014,07,02,00,34,18.90
2014,07,02,00,35,18.80
2014,07,02,00,36,18.80
2014,07,02,00,37,18.80
2014,07,02,00,38,18.70
2014,07,02,00,39,18.70
2014,07,02,00,40,18.60
2014,07,02,00,41,18.60
2014,07,02,00,42,18.50
2014,07,02,00,43,18.50
2014,07,02,00,44,18.40
2014,07,02,00,45,18.40
2014,07,02,00,46,18.40
2014,07,02,00,47,18.40
2014,07,02,00,48,18.40
2014,07,02,00,49,18.40
2014,07,02,00,50,18.30
2014,07,02,00,51,18.30
2014,07,02,00,52,18.30
2014,07,02,00,53,18.30
2014,07,02,00,54,18.30
2014,07,02,00,55,18.30
2014,07,02,00,56,18.30
2014,07,02,00,57,18.30
2014,07,02,00,58,18.30
2014,07,02,00,59,18.30
2014,07,02,01,00,18.30
2014,07,02,01,01,18.30
2014,07,02,01,02,18.30
2014,07,02,01,03,18.30
2014,07,02,01,04,18.20
2014,07,02,01,05,18.20
2014,07,02,01,06,18.10
2014,07,02,01,07,18.00
2014,07,02,01,08,18.00
2014,07,02,01,09,17.90
2014,07,02,01,10,17.90
2014,07,02,01,11,17.90
2014,07,02,01,12,17.80
2014,07,02,01,13,17.80
2014,07,02,01,14,17.80
2014,07,02,01,15,17.80
2014,07,02,01,16,17.80
2014,07,02,01,17,17.80
2014,07,02,01,18,17.80
2014,07,02,01,19,17.80
2014,07,02,01,20,17.80
2014,07,02,01,21,17.70
2014,07,02,01,22,17.70
2014,07,02,01,23,17.70
2014,07,02,01,24,17.70
2014,07,02,01,25,17.60
2014,07,02,01,26,17.60
2014,07,02,01,27,17.50
2014,07,02,01,28,17.50
2014,07,02,01,29,17.40
2014,07,02,01,30,17.40
2014,07,02,01,31,17.40
2014,07,02,01,32,17.30
2014,07,02,01,33,17.30
2014,07,02,01,34,17.30
2014,07,02,01,35,17.30
2014,07,02,01,36,17.30
2014,07,02,01,37,17.30
2014,07,02,01,38,17.30
2014,07,02,01,39,17.30
2014,07,02,01,40,17.30
2014,07,02,01,41,17.30
2014,07,02,01,42,17.30
2014,07,02,01,43,17.30
2014,07,02,01,44,17.40
2014,07,02,01,45,17.40
2014,07,02,01,46,17.40
2014,07,02,01,47,17.30
2014,07,02,01,48,17.30
2014,07,02,01,49,17.30
2014,07,02,01,50,17.30
2014,07,02,01,51,17.30
2014,07,02,01,52,17.30
2014,07,02,01,53,17.30
2014,07,02,01,54,17.20
2014,07,02,01,55,17.20
2014,07,02,01,56,17.20
2014,07,02,01,57,17.20
2014,07,02,01,58,17.20
2014,07,02,01,59,17.20
2014,07,02,02,00,17.20
2014,07,02,02,01,17.10
2014,07,02,02,02,17.10
2014,07,02,02,03,17.10
2014,07,02,02,04,17.10
2014,07,02,02,05,17.10
2014,07,02,02,06,17.00
2014,07,02,02,07,17.00
2014,07,02,02,08,17.00
2014,07,02,02,09,16.90
2014,07,02,02,10,16.90
2014,07,02,02,11,16.90
2014,07,02,02,12,16.80
2014,07,02,02,13,16.80
2014,07,02,02,14,16.80
2014,07,02,02,15,16.70
2014,07,02,02,16,16.70
2014,07,02,02,17,16.60
2014,07,02,02,18,16.60
2014,07,02,02,19,16.60
2014,07,02,02,20,16.60
2014,07,02,02,21,16.60
2014,07,02,02,22,16.60
2014,07,02,02,23,16.60
2014,07,02,02,24,16.60
2014,07,02,02,25,16.60
2014,07,02,02,26,16.60
2014,07,02,02,27,16.70
2014,07,02,02,28,16.70
2014,07,02,02,29,16.70
2014,07,02,02,30,16.80
2014,07,02,02,31,16.80
2014,07,02,02,32,16.80
2014,07,02,02,33,16.80
2014,07,02,02,34,16.80
2014,07,02,02,35,16.80
2014,07,02,02,36,16.90
2014,07,02,02,37,16.90
2014,07,02,02,38,16.90
2014,07,02,02,39,16.90
2014,07,02,02,40,16.90
2014,07,02,02,41,16.80
2014,07,02,02,42,16.80
2014,07,02,02,43,16.80
2014,07,02,02,44,16.80
2014,07,02,02,45,16.80
2014,07,02,02,46,16.70
2014,07,02,02,47,16.70
2014,07,02,02,48,16.70
2014,07,02,02,49,16.60
2014,07,02,02,50,16.60
2014,07,02,02,51,16.60
2014,07,02,02,52,16.60
2014,07,02,02,53,16.60
2014,07,02,02,54,16.60
2014,07,02,02,55,16.60
2014,07,02,02,56,16.60
2014,07,02,02,57,16.60
2014,07,02,02,58,16.60
2014,07,02,02,59,16.60
2014,07,02,03,00,16.70
2014,07,02,03,01,16.70
2014,07,02,03,02,16.70
2014,07,02,03,03,16.70
2014,07,02,03,04,16.80
2014,07,02,03,05,16.80
2014,07,02,03,06,16.80
2014,07,02,03,07,16.80
2014,07,02,03,08,16.80
2014,07,02,03,09,16.80
2014,07,02,03,10,16.80
2014,07,02,03,11,16.80
2014,07,02,03,12,16.90
2014,07,02,03,13,16.90
2014,07,02,03,14,16.90
2014,07,02,03,15,16.90
2014,07,02,03,16,16.90
2014,07,02,03,17,17.00
2014,07,02,03,18,17.00
2014,07,02,03,19,17.00
2014,07,02,03,20,17.00
2014,07,02,03,21,17.00
2014,07,02,03,22,17.10
2014,07,02,03,23,17.00
2014,07,02,03,24,17.00
2014,07,02,03,25,17.00
2014,07,02,03,26,17.00
2014,07,02,03,27,17.00
2014,07,02,03,28,16.90
2014,07,02,03,29,16.90
2014,07,02,03,30,16.90
2014,07,02,03,31,16.80
2014,07,02,03,32,16.80
2014,07,02,03,33,16.80
2014,07,02,03,34,16.80
2014,07,02,03,35,16.80
2014,07,02,03,36,16.80
2014,07,02,03,37,16.70
2014,07,02,03,38,16.70
2014,07,02,03,39,16.70
2014,07,02,03,40,16.70
2014,07,02,03,41,16.70
2014,07,02,03,42,16.70
2014,07,02,03,43,16.70
2014,07,02,03,44,16.60
2014,07,02,03,45,16.60
2014,07,02,03,46,16.60
2014,07,02,03,47,16.60
2014,07,02,03,48,16.60
2014,07,02,03,49,16.50
2014,07,02,03,50,16.50
2014,07,02,03,51,16.40
2014,07,02,03,52,16.40
2014,07,02,03,53,16.40
2014,07,02,03,54,16.30
2014,07,02,03,55,16.30
2014,07,02,03,56,16.30
2014,07,02,03,57,16.30
2014,07,02,03,58,16.20
2014,07,02,03,59,16.10
2014,07,02,04,00,16.10
2014,07,02,04,01,16.10
2014,07,02,04,02,16.00
2014,07,02,04,03,16.00
2014,07,02,04,04,16.00
2014,07,02,04,05,15.90
2014,07,02,04,06,15.90
2014,07,02,04,07,15.90
2014,07,02,04,08,15.90
2014,07,02,04,09,15.90
2014,07,02,04,10,15.90
2014,07,02,04,11,16.00
2014,07,02,04,12,16.00
2014,07,02,04,13,16.10
2014,07,02,04,14,16.10
2014,07,02,04,15,16.10
2014,07,02,04,16,16.10
2014,07,02,04,17,16.10
2014,07,02,04,18,16.20
2014,07,02,04,19,16.20
2014,07,02,04,20,16.20
2014,07,02,04,21,16.30
2014,07,02,04,22,16.40
2014,07,02,04,23,16.40
2014,07,02,04,24,16.50
2014,07,02,04,25,16.50
2014,07,02,04,26,16.50
2014,07,02,04,27,16.50
2014,07,02,04,28,16.50
2014,07,02,04,29,16.50
2014,07,02,04,30,16.40
2014,07,02,04,31,16.40
2014,07,02,04,32,16.40
2014,07,02,04,33,16.40
2014,07,02,04,34,16.30
2014,07,02,04,35,16.30
2014,07,02,04,36,16.30
2014,07,02,04,37,16.30
2014,07,02,04,38,16.30
2014,07,02,04,39,16.30
2014,07,02,04,40,16.30
2014,07,02,04,41,16.30
2014,07,02,04,42,16.30
2014,07,02,04,43,16.30
2014,07,02,04,44,16.30
2014,07,02,04,45,16.30
2014,07,02,04,46,16.30
2014,07,02,04,47,16.30
2014,07,02,04,48,16.30
2014,07,02,04,49,16.30
2014,07,02,04,50,16.30
2014,07,02,04,51,16.30
2014,07,02,04,52,16.30
2014,07,02,04,53,16.30
2014,07,02,04,54,16.30
2014,07,02,04,55,16.30
2014,07,02,04,56,16.30
2014,07,02,04,57,16.30
2014,07,02,04,58,16.40
2014,07,02,04,59,16.40
2014,07,02,05,00,16.40
2014,07,02,05,01,16.50
2014,07,02,05,02,16.50
2014,07,02,05,03,16.50
2014,07,02,05,04,16.50
2014,07,02,05,05,16.50
2014,07,02,05,06,16.50
2014,07,02,05,07,16.50
2014,07,02,05,08,16.50
2014,07,02,05,09,16.50
2014,07,02,05,10,16.40
2014,07,02,05,11,16.40
2014,07,02,05,12,16.40
2014,07,02,05,13,16.40
2014,07,02,05,14,16.30
2014,07,02,05,15,16.30
2014,07,02,05,16,16.20
2014,07,02,05,17,16.10
2014,07,02,05,18,16.00
2014,07,02,05,19,15.90
2014,07,02,05,20,15.90
2014,07,02,05,21,15.80
2014,07,02,05,22,15.80
2014,07,02,05,23,15.70
2014,07,02,05,24,15.60
2014,07,02,05,25,15.60
2014,07,02,05,26,15.50
2014,07,02,05,27,15.40
2014,07,02,05,28,15.40
2014,07,02,05,29,15.30
2014,07,02,05,30,15.30
2014,07,02,05,31,15.30
2014,07,02,05,32,15.20
2014,07,02,05,33,15.20
2014,07,02,05,34,15.20
2014,07,02,05,35,15.20
2014,07,02,05,36,15.10
2014,07,02,05,37,15.10
2014,07,02,05,38,15.10
2014,07,02,05,39,15.10
2014,07,02,05,40,15.10
2014,07,02,05,41,15.10
2014,07,02,05,42,15.10
2014,07,02,05,43,15.10
2014,07,02,05,44,15.10
2014,07,02,05,45,15.10
2014,07,02,05,46,15.10
2014,07,02,05,47,15.10
2014,07,02,05,48,15.20
2014,07,02,05,49,15.20
2014,07,02,05,50,15.20
2014,07,02,05,51,15.30
2014,07,02,05,52,15.30
2014,07,02,05,53,15.30
2014,07,02,05,54,15.30
2014,07,02,05,55,15.40
2014,07,02,05,56,15.40
2014,07,02,05,57,15.40
2014,07,02,05,58,15.40
2014,07,02,05,59,15.40
2014,07,02,06,00,15.40
2014,07,02,06,01,15.30
2014,07,02,06,02,15.30
2014,07,02,06,03,15.30
2014,07,02,06,04,15.30
2014,07,02,06,05,15.20
2014,07,02,06,06,15.20
2014,07,02,06,07,15.20
2014,07,02,06,08,15.20
2014,07,02,06,09,15.20
2014,07,02,06,10,15.20
2014,07,02,06,11,15.20
2014,07,02,06,12,15.20
2014,07,02,06,13,15.20
2014,07,02,06,14,15.20
2014,07,02,06,15,15.20
2014,07,02,06,16,15.20
2014,07,02,06,17,15.20
2014,07,02,06,18,15.20
2014,07,02,06,19,15.20
2014,07,02,06,20,15.20
2014,07,02,06,21,15.20
2014,07,02,06,22,15.20
2014,07,02,06,23,15.20
2014,07,02,06,24,15.20
2014,07,02,06,25,15.20
2014,07,02,06,26,15.20
2014,07,02,06,27,15.20
2014,07,02,06,28,15.20
2014,07,02,06,29,15.20
2014,07,02,06,30,15.20
2014,07,02,06,31,15.20
2014,07,02,06,32,15.20
2014,07,02,06,33,15.20
2014,07,02,06,34,15.20
2014,07,02,06,35,15.30
2014,07,02,06,36,15.30
2014,07,02,06,37,15.30
2014,07,02,06,38,15.30
2014,07,02,06,39,15.30
2014,07,02,06,40,15.30
2014,07,02,06,41,15.40
2014,07,02,06,42,15.40
2014,07,02,06,43,15.40
2014,07,02,06,44,15.40
2014,07,02,06,45,15.50
2014,07,02,06,46,15.50
2014,07,02,06,47,15.50
2014,07,02,06,48,15.60
2014,07,02,06,49,15.60
2014,07,02,06,50,15.60
2014,07,02,06,51,15.60
2014,07,02,06,52,15.70
2014,07,02,06,53,15.70
2014,07,02,06,54,15.70
2014,07,02,06,55,15.80
2014,07,02,06,56,15.80
2014,07,02,06,57,15.90
2014,07,02,06,58,15.90
2014,07,02,06,59,16.00
2014,07,02,07,00,16.10
2014,07,02,07,01,16.10
2014,07,02,07,02,16.20
2014,07,02,07,03,16.20
2014,07,02,07,04,16.30
2014,07,02,07,05,16.30
2014,07,02,07,06,16.30
2014,07,02,07,07,16.30
2014,07,02,07,08,16.40
2014,07,02,07,09,16.40
2014,07,02,07,10,16.40
2014,07,02,07,11,16.50
2014,07,02,07,12,16.50
2014,07,02,07,13,16.50
2014,07,02,07,14,16.60
2014,07,02,07,15,16.60
2014,07,02,07,16,16.60
2014,07,02,07,17,16.60
2014,07,02,07,18,16.60
2014,07,02,07,19,16.50
2014,07,02,07,20,16.50
2014,07,02,07,21,16.40
2014,07,02,07,22,16.40
2014,07,02,07,23,16.30
2014,07,02,07,24,16.20
2014,07,02,07,25,16.20
2014,07,02,07,26,16.10
2014,07,02,07,27,16.10
2014,07,02,07,28,16.00
2014,07,02,07,29,16.00
2014,07,02,07,30,15.90
2014,07,02,07,31,15.90
2014,07,02,07,32,15.90
2014,07,02,07,33,15.90
2014,07,02,07,34,15.90
2014,07,02,07,35,15.90
2014,07,02,07,36,15.90
2014,07,02,07,37,15.90
2014,07,02,07,38,16.00
2014,07,02,07,39,16.00
2014,07,02,07,40,16.00
2014,07,02,07,41,16.00
2014,07,02,07,42,16.00
2014,07,02,07,43,16.00
2014,07,02,07,44,16.00
2014,07,02,07,45,15.90
2014,07,02,07,46,15.90
2014,07,02,07,47,15.90
2014,07,02,07,48,15.80
2014,07,02,07,49,15.80
2014,07,02,07,50,15.80
2014,07,02,07,51,15.80
2014,07,02,07,52,15.80
2014,07,02,07,53,15.80
2014,07,02,07,54,15.80
2014,07,02,07,55,15.80
2014,07,02,07,56,15.80
2014,07,02,07,57,15.80
2014,07,02,07,58,15.80
2014,07,02,07,59,15.80
2014,07,02,08,00,15.90
2014,07,02,08,01,15.80
2014,07,02,08,02,15.90
2014,07,02,08,03,15.90
2014,07,02,08,04,15.90
2014,07,02,08,05,15.90
2014,07,02,08,06,16.00
2014,07,02,08,07,16.00
2014,07,02,08,08,16.10
2014,07,02,08,09,16.10
2014,07,02,08,10,16.20
2014,07,02,08,11,16.30
2014,07,02,08,12,16.30
2014,07,02,08,13,16.40
2014,07,02,08,14,16.50
2014,07,02,08,15,16.60
2014,07,02,08,16,16.70
2014,07,02,08,17,16.80
2014,07,02,08,18,16.90
2014,07,02,08,19,17.00
2014,07,02,08,20,17.10
2014,07,02,08,21,17.20
2014,07,02,08,22,17.40
2014,07,02,08,23,17.50
2014,07,02,08,24,17.60
2014,07,02,08,25,17.70
2014,07,02,08,26,17.80
2014,07,02,08,27,17.90
2014,07,02,08,28,18.00
2014,07,02,08,29,18.10
2014,07,02,08,30,18.20
2014,07,02,08,31,18.30
2014,07,02,08,32,18.40
2014,07,02,08,33,18.50
2014,07,02,08,34,18.60
2014,07,02,08,35,18.70
2014,07,02,08,36,18.80
2014,07,02,08,37,18.90
2014,07,02,08,38,19.00
2014,07,02,08,39,19.00
2014,07,02,08,40,19.10
2014,07,02,08,41,19.20
2014,07,02,08,42,19.30
2014,07,02,08,43,19.30
2014,07,02,08,44,19.40
2014,07,02,08,45,19.50
2014,07,02,08,46,19.50
2014,07,02,08,47,19.60
2014,07,02,08,48,19.60
2014,07,02,08,49,19.70
2014,07,02,08,50,19.80
2014,07,02,08,51,19.80
2014,07,02,08,52,19.80
2014,07,02,08,53,19.80
2014,07,02,08,54,19.80
2014,07,02,08,55,19.80
2014,07,02,08,56,19.80
2014,07,02,08,57,19.80
2014,07,02,08,58,19.70
2014,07,02,08,59,19.60
2014,07,02,09,00,19.50
2014,07,02,09,01,19.40
2014,07,02,09,02,19.40
2014,07,02,09,03,19.30
2014,07,02,09,04,19.20
2014,07,02,09,05,19.20
2014,07,02,09,06,19.00
2014,07,02,09,07,18.90
2014,07,02,09,08,18.80
2014,07,02,09,09,18.80
2014,07,02,09,10,18.80
2014,07,02,09,11,18.80
2014,07,02,09,12,18.80
2014,07,02,09,13,18.90
2014,07,02,09,14,19.00
2014,07,02,09,15,19.00
2014,07,02,09,16,19.10
2014,07,02,09,17,19.20
2014,07,02,09,18,19.30
2014,07,02,09,19,19.20
2014,07,02,09,20,19.20
2014,07,02,09,21,19.10
2014,07,02,09,22,19.00
2014,07,02,09,23,19.00
2014,07,02,09,24,19.10
2014,07,02,09,25,19.10
2014,07,02,09,26,19.10
2014,07,02,09,27,19.00
2014,07,02,09,28,18.80
2014,07,02,09,29,18.60
2014,07,02,09,30,18.50
2014,07,02,09,31,18.40
2014,07,02,09,32,18.40
2014,07,02,09,33,18.40
2014,07,02,09,34,18.40
2014,07,02,09,35,18.50
2014,07,02,09,36,18.60
2014,07,02,09,37,18.80
2014,07,02,09,38,18.90
2014,07,02,09,39,19.00
2014,07,02,09,40,19.20
2014,07,02,09,41,19.40
2014,07,02,09,42,19.50
2014,07,02,09,43,19.70
2014,07,02,09,44,19.80
2014,07,02,09,45,19.90
2014,07,02,09,46,19.90
2014,07,02,09,47,20.10
2014,07,02,09,48,20.20
2014,07,02,09,49,20.40
2014,07,02,09,50,20.50
2014,07,02,09,51,20.60
2014,07,02,09,52,20.70
2014,07,02,09,53,20.70
2014,07,02,09,54,20.80
2014,07,02,09,55,20.90
2014,07,02,09,56,21.00
2014,07,02,09,57,21.10
2014,07,02,09,58,21.10
2014,07,02,09,59,21.20
2014,07,02,10,00,21.20
2014,07,02,10,01,21.30
2014,07,02,10,02,21.30
2014,07,02,10,03,21.30
2014,07,02,10,04,21.30
2014,07,02,10,05,21.30
2014,07,02,10,06,21.30
2014,07,02,10,07,21.30
2014,07,02,10,08,21.30
2014,07,02,10,09,21.20
2014,07,02,10,10,21.00
2014,07,02,10,11,20.70
2014,07,02,10,12,20.60
2014,07,02,10,13,20.40
2014,07,02,10,14,20.30
2014,07,02,10,15,20.20
2014,07,02,10,16,20.10
2014,07,02,10,17,20.10
2014,07,02,10,18,20.10
2014,07,02,10,19,20.20
2014,07,02,10,20,20.30
2014,07,02,10,21,20.40
2014,07,02,10,22,20.50
2014,07,02,10,23,20.70
2014,07,02,10,24,20.80
2014,07,02,10,25,20.80
2014,07,02,10,26,20.80
2014,07,02,10,27,20.80
2014,07,02,10,28,20.90
2014,07,02,10,29,20.90
2014,07,02,10,30,20.90
2014,07,02,10,31,21.00
2014,07,02,10,32,21.10
2014,07,02,10,33,21.10
2014,07,02,10,34,21.10
2014,07,02,10,35,21.10
2014,07,02,10,36,21.00
2014,07,02,10,37,20.90
2014,07,02,10,38,20.70
2014,07,02,10,39,20.50
2014,07,02,10,40,20.40
2014,07,02,10,41,20.40
2014,07,02,10,42,20.40
2014,07,02,10,43,20.40
2014,07,02,10,44,20.40
2014,07,02,10,45,20.40
2014,07,02,10,46,20.40
2014,07,02,10,47,20.30
2014,07,02,10,48,20.30
2014,07,02,10,49,20.30
2014,07,02,10,50,20.30
2014,07,02,10,51,20.40
2014,07,02,10,52,20.40
2014,07,02,10,53,20.40
2014,07,02,10,54,20.30
2014,07,02,10,55,20.10
2014,07,02,10,56,19.90
2014,07,02,10,57,19.60
2014,07,02,10,58,19.40
2014,07,02,10,59,19.30
2014,07,02,11,00,19.30
2014,07,02,11,01,19.30
2014,07,02,11,02,19.40
2014,07,02,11,03,19.40
2014,07,02,11,04,19.50
2014,07,02,11,05,19.60
2014,07,02,11,06,19.70
2014,07,02,11,07,19.80
2014,07,02,11,08,19.80
2014,07,02,11,09,19.90
2014,07,02,11,10,19.90
2014,07,02,11,11,19.90
2014,07,02,11,12,19.90
2014,07,02,11,13,20.00
2014,07,02,11,14,20.10
2014,07,02,11,15,20.20
2014,07,02,11,16,20.20
2014,07,02,11,17,20.20
2014,07,02,11,18,20.20
2014,07,02,11,19,20.20
2014,07,02,11,20,20.10
2014,07,02,11,21,20.10
2014,07,02,11,22,20.20
2014,07,02,11,23,20.10
2014,07,02,11,24,20.10
2014,07,02,11,25,20.20
2014,07,02,11,26,20.20
2014,07,02,11,27,20.30
2014,07,02,11,28,20.30
2014,07,02,11,29,20.30
2014,07,02,11,30,20.20
2014,07,02,11,31,20.20
2014,07,02,11,32,20.10
2014,07,02,11,33,20.10
2014,07,02,11,34,20.20
2014,07,02,11,35,20.20
2014,07,02,11,36,20.20
2014,07,02,11,37,20.20
2014,07,02,11,38,20.30
2014,07,02,11,39,20.30
2014,07,02,11,40,20.50
2014,07,02,11,41,20.60
2014,07,02,11,42,20.80
2014,07,02,11,43,21.00
2014,07,02,11,44,21.10
2014,07,02,11,45,21.20
2014,07,02,11,46,21.20
2014,07,02,11,47,21.20
2014,07,02,11,48,21.20
2014,07,02,11,49,21.10
2014,07,02,11,50,21.10
2014,07,02,11,51,21.10
2014,07,02,11,52,21.10
2014,07,02,11,53,21.10
2014,07,02,11,54,21.20
2014,07,02,11,55,21.30
2014,07,02,11,56,21.50
2014,07,02,11,57,21.60
2014,07,02,11,58,21.80
2014,07,02,11,59,22.00
2014,07,02,12,00,22.10
2014,07,02,12,01,22.20
2014,07,02,12,02,22.30
2014,07,02,12,03,22.50
2014,07,02,12,04,22.70
2014,07,02,12,05,23.00
2014,07,02,12,06,23.20
2014,07,02,12,07,23.40
2014,07,02,12,08,23.60
2014,07,02,12,09,23.80
2014,07,02,12,10,23.90
2014,07,02,12,11,24.10
2014,07,02,12,12,24.20
2014,07,02,12,13,24.50
2014,07,02,12,14,24.60
2014,07,02,12,15,24.70
2014,07,02,12,16,24.80
2014,07,02,12,17,24.80
2014,07,02,12,18,24.80
2014,07,02,12,19,24.90
2014,07,02,12,20,25.00
2014,07,02,12,21,25.10
2014,07,02,12,22,25.10
2014,07,02,12,23,25.30
2014,07,02,12,24,25.30
2014,07,02,12,25,25.30
2014,07,02,12,26,25.30
2014,07,02,12,27,25.30
2014,07,02,12,28,25.30
2014,07,02,12,29,25.30
2014,07,02,12,30,25.30
2014,07,02,12,31,25.20
2014,07,02,12,32,25.10
2014,07,02,12,33,25.10
2014,07,02,12,34,25.10
2014,07,02,12,35,25.20
2014,07,02,12,36,25.20
2014,07,02,12,37,25.10
2014,07,02,12,38,25.10
2014,07,02,12,39,25.10
2014,07,02,12,40,25.00
2014,07,02,12,41,25.10
2014,07,02,12,42,25.10
2014,07,02,12,43,25.10
2014,07,02,12,44,25.00
2014,07,02,12,45,25.00
2014,07,02,12,46,25.00
2014,07,02,12,47,24.90
2014,07,02,12,48,24.80
2014,07,02,12,49,24.60
2014,07,02,12,50,24.40
2014,07,02,12,51,24.30
2014,07,02,12,52,24.10
2014,07,02,12,53,24.00
2014,07,02,12,54,24.00
2014,07,02,12,55,23.90
2014,07,02,12,56,23.70
2014,07,02,12,57,23.60
2014,07,02,12,58,23.40
2014,07,02,12,59,23.40
2014,07,02,13,00,23.30
2014,07,02,13,01,23.20
2014,07,02,13,02,23.10
2014,07,02,13,03,23.10
2014,07,02,13,04,23.00
2014,07,02,13,05,23.00
2014,07,02,13,06,23.00
2014,07,02,13,07,23.10
2014,07,02,13,08,23.10
2014,07,02,13,09,23.20
2014,07,02,13,10,23.30
2014,07,02,13,11,23.50
2014,07,02,13,12,23.50
2014,07,02,13,13,23.40
2014,07,02,13,14,23.20
2014,07,02,13,15,23.20
2014,07,02,13,16,23.10
2014,07,02,13,17,23.00
2014,07,02,13,18,22.90
2014,07,02,13,19,22.80
2014,07,02,13,20,22.80
2014,07,02,13,21,22.90
2014,07,02,13,22,22.90
2014,07,02,13,23,22.80
2014,07,02,13,24,22.90
2014,07,02,13,25,22.90
2014,07,02,13,26,23.00
2014,07,02,13,27,23.10
2014,07,02,13,28,23.10
2014,07,02,13,29,23.10
2014,07,02,13,30,23.00
2014,07,02,13,31,22.90
2014,07,02,13,32,22.80
2014,07,02,13,33,22.90
2014,07,02,13,34,22.90
2014,07,02,13,35,22.90
2014,07,02,13,36,22.90
2014,07,02,13,37,22.80
2014,07,02,13,38,22.80
2014,07,02,13,39,22.70
2014,07,02,13,40,22.70
2014,07,02,13,41,22.60
2014,07,02,13,42,22.60
2014,07,02,13,43,22.60
2014,07,02,13,44,22.60
2014,07,02,13,45,22.60
2014,07,02,13,46,22.70
2014,07,02,13,47,22.70
2014,07,02,13,48,22.80
2014,07,02,13,49,22.80
2014,07,02,13,50,22.90
2014,07,02,13,51,22.90
2014,07,02,13,52,22.70
2014,07,02,13,53,22.50
2014,07,02,13,54,22.30
2014,07,02,13,55,22.20
2014,07,02,13,56,22.10
2014,07,02,13,57,22.10
2014,07,02,13,58,22.20
2014,07,02,13,59,22.20
2014,07,02,14,00,22.20
2014,07,02,14,01,22.20
2014,07,02,14,02,22.30
2014,07,02,14,03,22.30
2014,07,02,14,04,22.30
2014,07,02,14,05,22.40
2014,07,02,14,06,22.50
2014,07,02,14,07,22.50
2014,07,02,14,08,22.60
2014,07,02,14,09,22.70
2014,07,02,14,10,22.70
2014,07,02,14,11,22.70
2014,07,02,14,12,22.70
2014,07,02,14,13,22.70
2014,07,02,14,14,22.70
2014,07,02,14,15,22.70
2014,07,02,14,16,22.70
2014,07,02,14,17,22.70
2014,07,02,14,18,22.70
2014,07,02,14,19,22.80
2014,07,02,14,20,22.80
2014,07,02,14,21,22.90
2014,07,02,14,22,23.00
2014,07,02,14,23,23.00
2014,07,02,14,24,23.10
2014,07,02,14,25,23.20
2014,07,02,14,26,23.30
2014,07,02,14,27,23.30
2014,07,02,14,28,23.30
2014,07,02,14,29,23.30
2014,07,02,14,30,23.40
2014,07,02,14,31,23.40
2014,07,02,14,32,23.40
2014,07,02,14,33,23.40
2014,07,02,14,34,23.30
2014,07,02,14,35,23.20
2014,07,02,14,36,23.00
2014,07,02,14,37,22.80
2014,07,02,14,38,22.60
2014,07,02,14,39,22.40
2014,07,02,14,40,22.30
2014,07,02,14,41,22.20
2014,07,02,14,42,22.20
2014,07,02,14,43,22.20
2014,07,02,14,44,22.20
2014,07,02,14,45,22.30
2014,07,02,14,46,22.20
2014,07,02,14,47,22.10
2014,07,02,14,48,21.90
2014,07,02,14,49,21.60
2014,07,02,14,50,21.40
2014,07,02,14,51,21.20
2014,07,02,14,52,21.00
2014,07,02,14,53,20.80
2014,07,02,14,54,20.60
2014,07,02,14,55,20.30
2014,07,02,14,56,20.10
2014,07,02,14,57,19.90
2014,07,02,14,58,19.70
2014,07,02,14,59,19.50
2014,07,02,15,00,19.30
2014,07,02,15,01,19.10
2014,07,02,15,02,18.90
2014,07,02,15,03,18.70
2014,07,02,15,04,18.60
2014,07,02,15,05,18.60
2014,07,02,15,06,18.70
2014,07,02,15,07,18.80
2014,07,02,15,08,18.90
2014,07,02,15,09,19.00
2014,07,02,15,10,19.00
2014,07,02,15,11,19.10
2014,07,02,15,12,19.20
2014,07,02,15,13,19.30
2014,07,02,15,14,19.40
2014,07,02,15,15,19.50
2014,07,02,15,16,19.60
2014,07,02,15,17,19.70
2014,07,02,15,18,19.90
2014,07,02,15,19,20.00
2014,07,02,15,20,20.20
2014,07,02,15,21,20.40
2014,07,02,15,22,20.60
2014,07,02,15,23,20.80
2014,07,02,15,24,20.90
2014,07,02,15,25,21.10
2014,07,02,15,26,21.20
2014,07,02,15,27,21.30
2014,07,02,15,28,21.20
2014,07,02,15,29,21.10
2014,07,02,15,30,20.90
2014,07,02,15,31,20.80
2014,07,02,15,32,20.70
2014,07,02,15,33,20.50
2014,07,02,15,34,20.40
2014,07,02,15,35,20.40
2014,07,02,15,36,20.30
2014,07,02,15,37,20.20
2014,07,02,15,38,20.10
2014,07,02,15,39,20.10
2014,07,02,15,40,20.00
2014,07,02,15,41,19.90
2014,07,02,15,42,19.90
2014,07,02,15,43,19.90
2014,07,02,15,44,20.00
2014,07,02,15,45,20.10
2014,07,02,15,46,20.20
2014,07,02,15,47,20.20
2014,07,02,15,48,20.40
2014,07,02,15,49,20.50
2014,07,02,15,50,20.50
2014,07,02,15,51,20.60
2014,07,02,15,52,20.60
2014,07,02,15,53,20.60
2014,07,02,15,54,20.50
2014,07,02,15,55,20.50
2014,07,02,15,56,20.40
2014,07,02,15,57,20.40
2014,07,02,15,58,20.40
2014,07,02,15,59,20.30
2014,07,02,16,00,20.30
2014,07,02,16,01,20.20
2014,07,02,16,02,20.20
2014,07,02,16,03,20.10
2014,07,02,16,04,20.00
2014,07,02,16,05,19.90
2014,07,02,16,06,19.80
2014,07,02,16,07,19.80
2014,07,02,16,08,19.80
2014,07,02,16,09,19.80
2014,07,02,16,10,19.90
2014,07,02,16,11,19.90
2014,07,02,16,12,20.10
2014,07,02,16,13,20.20
2014,07,02,16,14,20.30
2014,07,02,16,15,20.50
2014,07,02,16,16,20.60
2014,07,02,16,17,20.70
2014,07,02,16,18,20.90
2014,07,02,16,19,21.10
2014,07,02,16,20,21.30
2014,07,02,16,21,21.40
2014,07,02,16,22,21.60
2014,07,02,16,23,21.80
2014,07,02,16,24,22.00
2014,07,02,16,25,22.20
2014,07,02,16,26,22.30
2014,07,02,16,27,22.50
2014,07,02,16,28,22.60
2014,07,02,16,29,22.80
2014,07,02,16,30,23.00
2014,07,02,16,31,23.10
2014,07,02,16,32,23.30
2014,07,02,16,33,23.50
2014,07,02,16,34,23.60
2014,07,02,16,35,23.80
2014,07,02,16,36,23.90
2014,07,02,16,37,24.10
2014,07,02,16,38,24.40
2014,07,02,16,39,24.60
2014,07,02,16,40,24.90
2014,07,02,16,41,25.10
2014,07,02,16,42,25.20
2014,07,02,16,43,25.40
2014,07,02,16,44,25.50
2014,07,02,16,45,25.50
2014,07,02,16,46,25.50
2014,07,02,16,47,25.50
2014,07,02,16,48,25.50
2014,07,02,16,49,25.40
2014,07,02,16,50,25.40
2014,07,02,16,51,25.30
2014,07,02,16,52,25.30
2014,07,02,16,53,25.40
2014,07,02,16,54,25.40
2014,07,02,16,55,25.50
2014,07,02,16,56,25.50
2014,07,02,16,57,25.50
2014,07,02,16,58,25.50
2014,07,02,16,59,25.50
2014,07,02,17,00,25.60
2014,07,02,17,01,25.60
2014,07,02,17,02,25.50
2014,07,02,17,03,25.60
2014,07,02,17,04,25.60
2014,07,02,17,05,25.60
2014,07,02,17,06,25.60
2014,07,02,17,07,25.70
2014,07,02,17,08,25.60
2014,07,02,17,09,25.60
2014,07,02,17,10,25.60
2014,07,02,17,11,25.50
2014,07,02,17,12,25.50
2014,07,02,17,13,25.50
2014,07,02,17,14,25.60
2014,07,02,17,15,25.60
2014,07,02,17,16,25.70
2014,07,02,17,17,25.70
2014,07,02,17,18,25.60
2014,07,02,17,19,25.50